Regional Weather Roundup
Issued by NWS

Home | Current Version | Previous Version | Text Only | Print | Product List | Glossary Off
Versions: 1 2 3 4 5 6 7 8 9 10 11 12 13 14 15 16 17 18 19 20 21 22 23 24 25 26 27 28 29 30 31 32 33 34 35 36 37 38 39 40 41 42 43 44 45 46 47 48 49 50

000
ASUS45 KTFX 172219
RWRMT
MONTANA HOURLY WEATHER ROUNDUP
NATIONAL WEATHER SERVICE GREAT FALLS MT
419 PM MDT THU APR 17 2014

NOTE: "FAIR" INDICATES FEW OR NO CLOUDS BELOW 12000 FEET WITH NO
SIGNIFICANT WEATHER AND/OR OBSTRUCTIONS TO VISIBILITY.

* THESE STATIONS ARE NOT UNDER NWS QUALITY CONTROL. THEY DO NOT
   REPORT WEATHER SUCH AS PRECIPITATION OR FOG.

MTZ001>007-043-172300-
WEST OF THE DIVIDE
CITY           SKY/WX    TMP DP  RH WIND       PRES   REMARKS
KALISPELL      LGT RAIN  48  43  83 S9        29.79F
MISSOULA       CLOUDY    55  36  49 VRB5      29.80F
BUTTE          CLOUDY    55  27  34 W8G21     29.83F
MULLAN PASS    LGT SNOW  34  34 100 VRB3      29.79F VSB M1/4
* ESSEX        N/A       45  40  83 N1         N/A
* LINCOLN      N/A       54  31  42 W5G10      N/A
* LOOKOUT PASS N/A       41  37  86 SE8        N/A
* PLAINS APT   CLOUDY    55  36  49 SW6       29.82F
* POLSON       N/A       49  44  83 SW2        N/A
* RONAN APT    CLOUDY    52  43  72 E13G18     N/A
* SEELEY LAKE  N/A       47  37  68 W3         N/A
* THOMP F APT  CLOUDY    52  18  26 S9G22      N/A
* YAAK HILL    N/A       50  42  74 N/A        N/A
$$

MTZ008-052>055-172300-
SOUTHWEST MONTANA
CITY           SKY/WX    TMP DP  RH WIND       PRES   REMARKS
BOZEMAN        CLOUDY    61  25  25 W17G23    29.80F
DILLON         PTSUNNY   61  21  21 S15G21    29.81F
W YELLOWSTONE  N/A       51  21  31 SW8G22     N/A
* THREE FORKS  CLOUDY    63  30  29 N/A        N/A
* BOULDER HILL N/A       50  26  39 S18G26     N/A
* MONIDA PASS  N/A       47  17  30 S19G25     N/A
* RAYNOLDS PAS N/A       43  27  53 S20        N/A
* WHITEHALL    N/A       64  26  24 SW13G25    N/A
* WISE RIVER   N/A       56  29  36 W8G27      N/A
$$

MTZ009>010-012-014-046-048-049-054-172300-
EAST SLOPES AND CENTRAL MONTANA
CITY           SKY/WX    TMP DP  RH WIND       PRES   REMARKS
CUT BANK       PTSUNNY   50  34  54 S12       29.74F
GREAT FALLS    PTSUNNY   57  30  36 SW17      29.75F
HELENA         CLOUDY    61  30  31 W9        29.78F
MALMSTROM AFB  PTSUNNY   59  30  33 S10G23    29.74F
* CONRAD       PTSUNNY   55  34  45 E8         N/A
* DEARBORN     N/A       59  29  32 S17        N/A
* EAST GLACIER N/A       43  35  73 W20G29     N/A
* MONARCH      N/A       47  23  39 S6G14      N/A
* PENDROY      N/A       55  28  35 NW9G15     N/A
* ROGERS PASS  N/A       49  29  46 SE8G18     N/A
* SAINT MARY   N/A       44  34  68 S6G15      N/A
* SWEET GRASS  N/A       50  34  54 S18G24     N/A
* WHITE SULPH  N/A       53  23  31 SW10G18    N/A
$$

MTZ011-013-016-021-035-040-045-047-050-051-172300-
NORTH CENTRAL MONTANA
CITY           SKY/WX    TMP DP  RH WIND       PRES   REMARKS
HAVRE          CLOUDY    59  34  39 SW10      29.77F
LEWISTOWN      CLOUDY    50  34  54 NW7       29.83F
* CHINOOK      PTSUNNY   57  30  36 SW7       29.79F
* FORT BENTON  PTSUNNY   57  30  36 CALM      29.79F
* MALTA APT    PTCLDY    61  28  29 SE12G17   29.79F
* CHESTER      N/A       52  33  48 SW9G16     N/A
* DENTON       N/A       54  30  40 W9G19      N/A
* GEYSER       N/A       54  29  38 SE1G8      N/A
* JUDITH GAP   N/A       52  24  34 W12G17     N/A
$$

MTZ017>020-022>027-061-062-172300-
NORTHEAST MONTANA
CITY           SKY/WX    TMP DP  RH WIND       PRES   REMARKS
GLASGOW        PTSUNNY   57  30  36 SE17G25   29.86F
GLENDIVE       PTSUNNY   54  34  47 SE13      29.95F
JORDAN         PTSUNNY   57  30  36 SW5       29.84F
SIDNEY         PTCLDY    48  30  50 SE17G25   30.02F
WOLF POINT     PTSUNNY   55  30  39 SE10      29.93F
* BEAVER HILL  N/A       48  32  54 SE22G33    N/A
* CIRCLE       N/A       57  36  46 SE9        N/A
* LINDSAY DVD  N/A       50  32  50 E15        N/A
* NAVAJO       N/A       46  26  46 SE18G24    N/A
* SACO         N/A       57  30  36 E15G24     N/A
$$

MTZ028>042-056>058-172300-
SOUTHCENTRAL AND SOUTHEAST MONTANA
CITY           SKY/WX    TMP DP  RH WIND       PRES   REMARKS
BAKER          PTSUNNY   54  32  43 SE18G26   29.96F
BILLINGS       PTSUNNY   61  25  25 W6        29.83F
LIVINGSTON     PTSUNNY   63  21  20 SW22G32   29.80F
MILES CITY     PTSUNNY   59  28  31 SW7       29.88F
* LAUREL APT   PTCLDY    63  27  26 E5         N/A
* ROUNDUP APT  CLOUDY    59  27  29 SW6        N/A
* HYSHAM       N/A       59  24  26 W8         N/A
* LAME DEER    N/A       54  28  37 S6         N/A
* REED POINT   N/A       61  27  27 E5G12      N/A
* ROSCOE HILL  N/A       54  11  18 SE6G19     N/A
$$

REGIONAL REPORTS...DAKOTAS
CITY           SKY/WX    TMP DP  RH WIND       PRES   REMARKS
WILLISTON      CLOUDY    45  27  49 SE15G26   30.06F
DICKINSON      PTSUNNY   39  27  62 SE20G28   30.06F WCI  29
CROSBY         PTCLDY    41  23  49 SE21G28   30.08F
TIOGA          PTSUNNY   41  23  49 SE21G29   30.11F
WATFORD CITY   CLOUDY    41  27  58 SE21G26   30.05F
BISMARCK       CLOUDY    46  19  34 S18       30.17F
GRAND FORKS    PTCLDY    43   9  25 E9        30.30F
FARGO          SUNNY     45  12  26 W8        30.28F
BUFFALO SD     SUNNY     52  30  43 SE17G26   29.95F
RAPID CITY     PTCLDY    52  36  55 S21G28    30.00F
$$

REGIONAL REPORTS...WYOMING/IDAHO/WASHINGTON
CITY           SKY/WX    TMP DP  RH WIND       PRES   REMARKS
GILLETTE       PTSUNNY   57  25  29 W9G21     29.90F
SHERIDAN       SUNNY     59  30  33 E7        29.87F
CODY           PTCLDY    63  23  22 W10G18    29.85F
YELLOWSTONE LA PTCLDY    46  19  34 SW8       30.00F
SALMON         PTSUNNY   66  27  23 N9        29.74F
MULLAN PASS    LGT SNOW  34  34 100 VRB3      29.79S VSB M1/4
SAND POINT     RAIN      46  46 100 E7        29.80F
SPOKANE        LGT RAIN  50  45  83 SW8       29.79F
$$

REGIONAL REPORTS...ALBERTA
CITY           SKY/WX    TMP DP  RH WIND       PRES   REMARKS
CALGARY        CLOUDY    37  34  89 E7        29.71F WCI  32
LETHBRIDGE     CLOUDY    54  37  53 S23       29.71S
MEDICINE HAT   PTSUNNY   54  36  51 S7        29.75S
EDMONTON       LGT SNOW  32  27  82 E16       29.84S VSB 2 1/4 WCI  21
WATERTON GATE  N/A       50  37  61 SW12       N/A
CARDSTON       N/A       52  34  50 SW8G17     N/A
$$

REGIONAL REPORTS...SASKATCHEWAN
CITY           SKY/WX    TMP DP  RH WIND       PRES   REMARKS
SWIFT CURRENT  CLOUDY    50  30  46 S20G25    29.84F
MOOSE JAW      CLOUDY   N/A N/A N/A SE17G24    N/A
REGINA         CLOUDY    41  23  49 SE28G37   30.06F
VAL MARIE      N/A       54  28  37 S15G21     N/A
ASSINIBOIA     N/A       46  27  48 SE14G22    N/A
CORONACH       N/A       50  27  41 SE20G28    N/A

$$




USA.gov is the U.S. government's official web portal to all federal, state and local government web resources and services.